Date_and_time,latitude,longitude,wind_speed,RelWindDirFrom,WindDirFrom,air_pressure,air_temperature,relative_humidity,Temp,platform_speed_wrt_ground,air_pressure_at_mean_sea_level,platform_orientation
2018-08-21 23:50,50.63044,-96.9807433333333,6.9,10.6,239,991.31,23.1,27,20.69,0.0,1017.02,18.9
2018-08-22 00:00,50.6304433333333,-96.9807516666667,6.7,10.5,235,991.22,23.2,27,20.73,0.0,1016.93,90.0
2018-08-22 00:10,50.630445,-96.9807583333333,7.6,11.8,228,991.16,23.3,27,20.86,0.0,1016.87,90.0
2018-08-22 00:20,50.630445,-96.98076,6.8,10.8,226,991.09,23.6,27,20.92,0.0,1016.77,90.0
2018-08-22 00:30,50.630445,-96.98076,6.6,10.7,233,991.06,23.7,27,20.84,0.0,1016.74,90.0
2018-08-22 00:40,50.6304433333333,-96.9807616666667,6.7,9.9,224,991.03,23.4,28,20.84,0.0,1016.73,90.0
2018-08-22 00:50,50.6304533333333,-96.9807483333333,6.1,9.1,223,991.01,23.2,29,20.89,0.0,1016.71,90.0
2018-08-22 01:00,50.6304516666667,-96.9807666666667,5.5,7.9,214,990.90,22.9,30,20.82,0.0,1016.63,360.0
2018-08-22 01:10,50.6304333333333,-96.9807666666667,5.4,8.1,213,990.83,22.4,31,20.86,0.0,1016.59,360.0
2018-08-22 01:20,50.63044,-96.9807716666667,5.5,7.7,210,990.90,21.9,32,20.86,0.0,1016.69,360.0
2018-08-22 01:30,50.630445,-96.98077,5.3,6.9,211,990.98,21.6,32,20.85,0.0,1016.79,360.0
2018-08-22 01:40,50.630445,-96.98077,5.0,6.4,211,991.05,21.2,33,20.82,0.0,1016.88,360.0
2018-08-22 01:50,50.630445,-96.9807666666667,5.5,6.9,211,991.05,21.0,33,20.70,0.0,1016.89,360.0
2018-08-22 02:00,50.6304466666667,-96.9807666666667,5.4,7.2,209,990.97,20.7,34,20.60,0.0,1016.81,360.0
2018-08-22 02:10,50.6304466666667,-96.9807666666667,4.1,5.0,208,990.94,20.5,35,20.55,0.0,1016.78,360.0
2018-08-22 02:20,50.6304466666667,-96.980765,4.9,5.9,206,990.98,20.2,35,20.52,0.0,1016.83,360.0
2018-08-22 02:30,50.63045,-96.9807683333333,5.0,5.8,208,991.01,19.9,37,20.49,0.0,1016.88,360.0
2018-08-22 02:40,50.630445,-96.9807666666667,5.4,6.5,205,990.95,19.7,38,20.51,0.0,1016.84,360.0
2018-08-22 02:50,50.6304466666667,-96.980765,6.4,7.8,206,990.91,19.6,37,20.51,0.0,1016.82,360.0
2018-08-22 03:00,50.630415,-96.9807683333333,6.3,7.5,206,990.84,19.5,38,20.48,0.0,1016.77,200.1
2018-08-22 03:10,50.63043,-96.98076,6.3,7.7,207,990.78,19.3,38,20.48,0.0,1016.74,200.1
2018-08-22 03:20,50.6304383333333,-96.9807516666667,6.2,7.3,206,990.68,19.2,39,20.46,0.0,1016.66,200.1
2018-08-22 03:30,50.63044,-96.9807583333333,5.8,6.7,205,990.62,19.0,40,20.45,0.0,1016.63,200.1
2018-08-22 03:40,50.63044,-96.9807566666667,6.8,8.9,201,990.52,18.7,41,20.45,0.0,1016.54,200.1
2018-08-22 03:50,50.63044,-96.98076,8.1,10.1,201,990.49,18.4,42,20.45,0.0,1016.53,200.1
2018-08-22 04:00,50.63044,-96.98076,8.4,11.1,200,990.38,18.2,43,20.51,0.0,1016.44,165.5
2018-08-22 04:10,50.63044,-96.9807616666667,8.8,11.1,198,990.31,18.2,43,20.56,0.0,1016.39,165.5
2018-08-22 04:20,50.6304433333333,-96.9807616666667,8.8,11.6,197,990.25,18.0,44,20.58,0.0,1016.35,165.5
2018-08-22 04:30,50.630445,-96.9807633333333,7.9,10.7,198,990.16,17.7,46,20.59,0.0,1016.28,165.5
2018-08-22 04:40,50.630445,-96.9807633333333,7.4,9.4,201,990.07,17.5,46,20.59,0.0,1016.20,165.5
2018-08-22 04:50,50.630445,-96.9807633333333,7.3,9.5,207,990.00,17.2,45,20.58,0.0,1016.15,165.5
2018-08-22 05:00,50.630445,-96.9807633333333,7.8,9.7,207,989.92,16.9,45,20.58,0.0,1016.08,360.0
2018-08-22 05:10,50.630445,-96.9807633333333,7.7,9.6,207,989.80,16.8,46,20.56,0.0,1015.97,360.0
2018-08-22 05:20,50.6304433333333,-96.9807633333333,7.5,9.4,206,989.67,16.7,46,20.56,0.0,1015.85,360.0
2018-08-22 05:30,50.6304116666667,-96.9807633333333,7.0,8.9,206,989.59,16.7,46,20.55,0.0,1015.79,360.0
2018-08-22 05:40,50.63044,-96.9807766666667,7.2,9.4,211,989.57,16.7,44,20.54,0.0,1015.78,360.0
2018-08-22 05:50,50.6304383333333,-96.9807783333333,7.0,9.4,212,989.59,16.7,43,20.52,0.0,1015.80,360.0
2018-08-22 06:00,50.6304383333333,-96.9807783333333,7.2,9.1,212,989.56,16.6,42,20.51,0.0,1015.78,351.6
2018-08-22 06:10,50.6304466666667,-96.9807566666667,7.0,10.9,212,989.52,16.6,43,20.49,0.0,1015.74,351.6
2018-08-22 06:20,50.6304433333333,-96.9807733333333,6.2,8.4,214,989.51,16.5,44,20.47,0.0,1015.75,351.6
2018-08-22 06:30,50.6304483333333,-96.9807733333333,6.0,7.7,214,989.42,16.4,44,20.44,0.0,1015.68,351.6
2018-08-22 06:40,50.630445,-96.9807716666667,5.3,8.4,220,989.37,16.2,46,20.42,0.0,1015.65,351.6
2018-08-22 06:50,50.6304466666667,-96.980775,6.4,9.1,224,989.34,16.0,46,20.40,0.0,1015.64,351.6
2018-08-22 07:00,50.6304483333333,-96.980775,6.1,8.4,230,989.27,16.0,48,20.37,0.0,1015.58,299.2
2018-08-22 07:10,50.6304466666667,-96.9807733333333,6.0,8.4,232,989.21,15.7,48,20.34,0.0,1015.53,299.2
2018-08-22 07:20,50.63049,-96.9808216666667,6.5,9.0,228,989.14,15.6,50,20.31,0.0,1015.46,299.2
2018-08-22 07:30,50.6304366666667,-96.9807716666667,7.1,9.2,229,989.09,15.5,51,20.28,0.0,1015.42,299.2
2018-08-22 07:40,50.6304416666667,-96.9807733333333,7.4,10.6,229,989.01,15.4,53,20.26,0.0,1015.35,299.2
2018-08-22 07:50,50.6304433333333,-96.98077,7.3,9.7,228,988.95,15.3,54,20.25,0.0,1015.29,299.2
2018-08-22 08:00,50.6304433333333,-96.9807666666667,7.7,10.3,230,988.94,15.2,55,20.22,0.0,1015.28,0.0
2018-08-22 08:10,50.630445,-96.98075,7.5,10.1,231,988.93,15.1,57,20.22,0.0,1015.27,0.0
2018-08-22 08:20,50.6304416666667,-96.9807533333333,7.2,10.4,233,988.89,15.1,58,20.20,0.0,1015.24,0.0
2018-08-22 08:30,50.6304483333333,-96.9807583333333,6.9,10.1,235,988.87,15.1,59,20.17,0.0,1015.24,0.0
2018-08-22 08:40,50.6304466666667,-96.98076,7.0,9.4,239,988.84,15.0,60,20.15,0.0,1015.21,0.0
2018-08-22 08:50,50.6304466666667,-96.9807633333333,7.0,9.7,239,988.80,14.7,62,20.13,0.0,1015.19,0.0
2018-08-22 09:00,50.6304333333333,-96.9807533333333,6.5,9.4,238,988.80,14.5,64,20.12,0.0,1015.21,116.7
2018-08-22 09:10,50.630445,-96.98076,6.5,9.6,237,988.78,14.4,65,20.10,0.0,1015.20,116.7
2018-08-22 09:20,50.630445,-96.9807733333333,7.1,9.7,240,988.79,14.4,67,20.07,0.0,1015.22,116.7
2018-08-22 09:30,50.6304483333333,-96.9807733333333,6.7,9.3,240,988.77,14.3,68,20.04,0.0,1015.20,116.7
2018-08-22 09:40,50.63045,-96.9807766666667,7.3,9.8,242,988.72,14.3,69,20.02,0.0,1015.16,116.7
2018-08-22 09:50,50.63045,-96.9807716666667,7.2,9.4,242,988.66,14.2,70,20.01,0.0,1015.11,116.7
2018-08-22 10:00,50.63045,-96.9807716666667,6.6,9.1,241,988.63,14.2,72,19.99,0.0,1015.08,360.0
2018-08-22 10:10,50.63045,-96.9807716666667,6.9,8.9,242,988.57,14.2,72,19.98,0.0,1015.01,360.0
2018-08-22 10:20,50.63045,-96.98077,7.0,9.9,240,988.54,14.1,73,19.96,0.0,1014.99,360.0
2018-08-22 10:30,50.6304483333333,-96.9807683333333,7.3,10.6,240,988.52,14.1,74,19.96,0.0,1014.98,360.0
2018-08-22 10:40,50.6304483333333,-96.9807683333333,7.1,9.6,240,988.51,14.0,75,19.94,0.0,1014.98,360.0
2018-08-22 10:50,50.6304466666667,-96.9807683333333,7.1,10.1,240,988.46,14.0,76,19.92,0.0,1014.94,360.0
2018-08-22 11:00,50.6304466666667,-96.9807666666667,7.4,11.0,238,988.41,13.9,77,19.91,0.0,1014.90,360.0
2018-08-22 11:10,50.630445,-96.980765,7.6,10.9,241,988.39,13.9,77,19.90,0.0,1014.87,360.0
2018-08-22 11:20,50.630445,-96.9807816666667,7.4,11.3,239,988.39,13.9,77,19.89,0.0,1014.89,360.0
2018-08-22 11:30,50.6304433333333,-96.9807633333333,7.0,10.4,232,988.37,14.0,78,19.88,0.0,1014.86,360.0
2018-08-22 11:40,50.630445,-96.9807616666667,7.1,10.5,232,988.35,14.0,78,19.88,0.0,1014.84,360.0
2018-08-22 11:50,50.630445,-96.9807783333333,7.4,10.9,237,988.37,14.1,77,19.87,0.0,1014.86,360.0
2018-08-22 12:00,50.6304383333333,-96.980765,6.7,9.7,244,988.47,13.9,78,19.85,0.0,1014.97,323.4
2018-08-22 12:10,50.6304466666667,-96.9807616666667,6.6,9.3,242,988.45,13.8,79,19.84,0.0,1014.96,323.4
2018-08-22 12:20,50.6304466666667,-96.9807616666667,6.5,8.5,241,988.38,13.9,78,19.82,0.0,1014.88,323.4
2018-08-22 12:30,50.6304516666667,-96.98076,7.1,9.9,239,988.34,14.0,78,19.82,0.0,1014.83,323.4
2018-08-22 12:40,50.6304366666667,-96.9807483333333,7.6,10.6,240,988.37,14.1,77,19.82,0.0,1014.87,323.4
2018-08-22 12:50,50.63044,-96.98076,7.8,10.7,241,988.45,14.4,76,19.80,0.0,1014.94,323.4
2018-08-22 13:00,50.63044,-96.98076,7.8,11.4,241,988.44,14.8,74,19.77,0.0,1014.91,143.4
2018-08-22 13:10,50.6304383333333,-96.9807616666667,7.7,12.5,244,988.48,15.2,72,19.76,0.0,1014.93,143.4
2018-08-22 13:20,50.6304383333333,-96.9807633333333,8.2,11.6,245,988.56,15.7,70,19.76,0.0,1014.99,143.4
2018-08-22 13:30,50.6304383333333,-96.9807633333333,7.1,10.4,247,988.52,16.1,69,19.75,0.0,1014.93,143.4
2018-08-22 13:40,50.6304383333333,-96.9807616666667,7.4,10.9,246,988.49,16.5,67,19.74,0.0,1014.87,143.4
2018-08-22 13:50,50.63044,-96.9807633333333,7.1,10.0,243,988.48,16.9,65,19.70,0.0,1014.85,143.4
2018-08-22 14:00,50.63044,-96.9807633333333,8.0,11.2,245,988.51,17.5,62,19.73,0.0,1014.87,142.0
2018-08-22 14:10,50.63044,-96.9807633333333,7.2,11.7,250,988.50,18.0,60,19.72,0.0,1014.82,142.0
2018-08-22 14:20,50.63044,-96.9807633333333,7.3,11.4,253,988.47,18.7,55,19.72,0.0,1014.75,142.0
2018-08-22 14:30,50.6304416666667,-96.980765,7.3,11.2,254,988.45,19.4,51,19.72,0.0,1014.69,142.0
2018-08-22 14:40,50.6304516666667,-96.9807783333333,7.5,12.5,265,988.42,19.9,49,19.73,0.0,1014.64,142.0
2018-08-22 14:50,50.63045,-96.9807716666667,7.3,12.0,257,988.38,20.3,47,19.76,0.0,1014.56,142.0
2018-08-22 15:00,50.6304533333333,-96.98077,6.8,10.6,255,988.33,20.6,46,19.79,0.0,1014.47,38.0
2018-08-22 15:10,50.63045,-96.98077,7.6,11.1,252,988.36,20.9,45,19.81,0.0,1014.47,38.0
2018-08-22 15:20,50.63045,-96.9807683333333,5.8,9.1,249,988.39,21.3,45,19.84,0.0,1014.46,38.0
2018-08-22 15:30,50.6304466666667,-96.9807666666667,6.7,9.9,252,988.38,21.6,43,19.87,0.0,1014.42,38.0
2018-08-22 15:40,50.630445,-96.98077,7.3,10.1,240,988.33,22.0,41,19.88,0.0,1014.33,38.0
2018-08-22 15:50,50.6304516666667,-96.9807766666667,7.3,10.5,243,988.23,22.2,40,19.90,0.0,1014.19,38.0
2018-08-22 16:00,50.6304466666667,-96.98077,6.9,9.6,234,988.21,22.5,40,19.93,0.0,1014.13,311.7
2018-08-22 16:10,50.6304466666667,-96.9807666666667,6.6,10.0,229,988.15,22.8,40,19.96,0.0,1014.03,311.7
2018-08-22 16:20,50.630465,-96.9807883333333,5.4,8.3,236,988.06,23.2,38,19.99,0.0,1013.89,311.7
2018-08-22 16:30,50.630475,-96.9807916666667,5.3,10.2,223,988.01,23.5,38,20.04,0.0,1013.80,311.7
2018-08-22 16:40,50.630445,-96.9807716666667,7.5,11.3,223,987.93,23.6,36,20.06,0.0,1013.70,311.7
2018-08-22 16:50,50.630445,-96.9807716666667,7.1,11.2,222,987.86,24.1,34,20.09,0.0,1013.59,311.7
2018-08-22 17:00,50.630445,-96.9807666666667,7.5,12.1,232,987.82,24.5,33,20.14,0.0,1013.52,90.0
2018-08-22 17:10,50.6304466666667,-96.9807666666667,7.1,12.3,228,987.71,24.8,31,20.17,0.0,1013.38,90.0
2018-08-22 17:20,50.630445,-96.9807616666667,8.0,14.8,230,987.59,25.3,30,20.20,0.0,1013.22,90.0
2018-08-22 17:30,50.6304466666667,-96.98078,7.4,11.3,236,987.49,25.7,29,20.21,0.0,1013.08,90.0
2018-08-22 17:40,50.6304533333333,-96.980785,6.8,13.0,237,987.37,26.0,28,20.18,0.0,1012.93,90.0
2018-08-22 17:50,50.6304483333333,-96.98078,8.5,14.5,240,987.27,26.4,26,20.18,0.0,1012.80,90.0
2018-08-22 18:00,50.6304466666667,-96.9807733333333,7.8,11.9,252,987.05,27.0,25,20.36,0.0,1012.54,228.3
2018-08-22 18:10,50.6304466666667,-96.980775,10.5,18.1,242,986.96,27.2,23,20.47,0.0,1012.42,228.3
2018-08-22 18:20,50.6304483333333,-96.9807766666667,10.7,18.5,259,986.71,27.5,21,20.54,0.0,1012.14,228.3
2018-08-22 18:30,50.6304466666667,-96.980775,12.0,17.9,262,986.53,27.7,20,20.60,0.0,1011.94,228.3
2018-08-22 18:40,50.6304466666667,-96.980775,10.9,17.7,259,986.46,27.8,19,20.68,0.0,1011.85,228.3
2018-08-22 18:50,50.6304466666667,-96.980775,10.6,17.9,257,986.35,28.0,19,20.65,0.0,1011.70,228.3
2018-08-22 19:00,50.630445,-96.9807766666667,9.3,19.6,254,986.24,28.2,19,20.54,0.0,1011.57,192.6
2018-08-22 19:10,50.630445,-96.980775,11.5,19.1,245,986.19,28.2,18,20.54,0.0,1011.50,192.6
2018-08-22 19:20,50.63046,-96.980785,10.7,17.2,261,986.10,28.2,19,20.53,0.0,1011.39,192.6
2018-08-22 19:30,50.6304566666667,-96.9807733333333,11.2,17.9,239,986.05,28.3,20,20.68,0.0,1011.32,192.6
2018-08-22 19:40,50.6304533333333,-96.9807733333333,13.0,19.5,228,985.96,28.1,19,20.92,0.0,1011.22,192.6
2018-08-22 19:50,50.6304483333333,-96.98077,9.9,18.0,252,985.89,28.3,18,21.02,0.0,1011.11,192.6
2018-08-22 20:00,50.6304416666667,-96.980785,13.4,20.6,233,985.88,28.1,18,21.03,0.0,1011.11,270.0
2018-08-22 20:10,50.6304233333333,-96.9807866666667,11.9,18.7,241,985.77,28.2,19,21.01,0.0,1010.97,270.0
2018-08-22 20:20,50.630435,-96.98077,11.6,18.5,230,985.66,28.0,19,21.01,0.0,1010.86,270.0
2018-08-22 20:30,50.6304383333333,-96.9807583333333,11.7,19.4,239,985.58,28.1,19,21.01,0.0,1010.77,270.0
2018-08-22 20:40,50.63044,-96.9807583333333,12.7,20.1,224,985.40,28.3,18,21.00,0.0,1010.57,270.0
2018-08-22 20:50,50.6304383333333,-96.9807583333333,14.4,23.0,226,985.30,28.3,18,21.00,0.0,1010.46,270.0
2018-08-22 21:00,50.63044,-96.98076,12.5,20.1,237,985.20,28.4,18,20.96,0.0,1010.35,119.2
2018-08-22 21:10,50.6304483333333,-96.98077,13.8,21.7,231,985.07,28.4,18,20.98,0.0,1010.21,119.2
2018-08-22 21:20,50.630445,-96.9807683333333,13.4,21.2,232,984.92,28.5,18,21.02,0.0,1010.06,119.2
2018-08-22 21:30,50.630445,-96.98077,14.6,21.7,227,984.76,28.4,18,21.03,0.0,1009.90,119.2
2018-08-22 21:40,50.630445,-96.9807716666667,12.8,20.0,225,984.62,28.4,19,21.05,0.0,1009.75,119.2
2018-08-22 21:50,50.6304433333333,-96.98077,15.7,23.1,236,984.63,28.3,18,21.09,0.0,1009.78,119.2
2018-08-22 22:00,50.6304466666667,-96.9807766666667,13.4,20.1,230,984.53,28.3,18,21.09,0.0,1009.66,360.0
2018-08-22 22:10,50.6304416666667,-96.9807633333333,15.5,21.4,234,984.48,28.3,18,21.11,0.0,1009.62,360.0
2018-08-22 22:20,50.6304416666667,-96.9807616666667,13.1,21.2,235,984.37,28.3,18,21.08,0.0,1009.51,360.0
2018-08-22 22:30,50.6304416666667,-96.9807583333333,14.5,20.1,236,984.34,28.3,18,21.06,0.0,1009.47,360.0
2018-08-22 22:40,50.63044,-96.9807566666667,14.0,23.9,235,984.27,28.3,17,21.04,0.0,1009.40,360.0
2018-08-22 22:50,50.63044,-96.9807583333333,12.5,20.4,229,984.18,28.2,18,21.03,0.0,1009.30,360.0
2018-08-22 23:00,50.63044,-96.9807616666667,14.1,22.5,230,984.09,28.0,19,20.99,0.0,1009.22,90.0
2018-08-22 23:10,50.6304383333333,-96.98077,14.2,23.3,228,983.97,27.9,19,20.97,0.0,1009.10,90.0
2018-08-22 23:20,50.6304466666667,-96.98077,12.1,17.5,226,983.81,27.9,19,20.96,0.0,1008.94,90.0
